Starlink 31787

operational
NORAD ID: 59650 Int'l Des: 2024-082 Owner: SPXS Country: US Constellation: starlink
LEOCIRCULAR

关于 Starlink 31787

正在加载描述...

实时位置

正在加载3D地球...

即将过境

高度历史

Altitude vs Time

uPlot chart will show altitude changes over time

两行轨道根数

1 59650U 24082V 25351.11805877 -.00003227 00000-0 -10769-3 0 9996
2 59650 43.0006 246.1356 0001316 261.6297 98.4406 15.27614481 92383
Epoch: Dec 17, 2025 • Age: 33 hours

当前状态

高度 493.1 km
速度 7.62 km/s
星下点 -37.31°S, 75.98°W
发射日期 May 3, 2024
运行时间 1.6 years
类型 internet

技术详情

分类 Payload
质量 730.00 kg
干质量 700.00 kg
总质量 730.00 kg
长度 0.30 m
直径 4.10 m
跨度 29.00 m
形状 Box + pan
制造商 SPXS
平台类型 Starlink V2M
阶段状态 In Orbit
所有者/国家 SPXS/US

大型星座

Loading constellations...